TimeMDT,TemperatureF,Dew PointF,Humidity,Sea Level PressureIn,VisibilityMPH,Wind Direction,Wind SpeedMPH,Gust SpeedMPH,PrecipitationIn,Events,Conditions,WindDirDegrees,DateUTC
12:53 AM,35.1,26.1,70,30.15,10.0,WSW,6.9,-,N/A,,Clear,250,2012-10-01 06:53:00
1:53 AM,37.0,26.1,65,30.15,10.0,SW,4.6,-,N/A,,Clear,230,2012-10-01 07:53:00
3:53 AM,37.9,26.1,62,30.12,10.0,West,11.5,-,N/A,,Clear,270,2012-10-01 09:53:00
4:53 AM,33.1,24.1,70,30.15,10.0,SSW,5.8,-,N/A,,Clear,210,2012-10-01 10:53:00
6:53 AM,28.0,23.0,81,30.23,10.0,SSW,4.6,-,N/A,,Clear,210,2012-10-01 12:53:00
7:53 AM,36.0,27.0,70,30.25,10.0,West,8.1,-,N/A,,Clear,270,2012-10-01 13:53:00
8:53 AM,48.0,28.9,48,30.22,10.0,West,4.6,-,N/A,,Clear,280,2012-10-01 14:53:00
9:53 AM,57.9,28.0,32,30.21,10.0,NNE,5.8,-,N/A,,Clear,20,2012-10-01 15:53:00
10:53 AM,64.0,27.0,25,30.18,10.0,NNE,10.4,-,N/A,,Clear,30,2012-10-01 16:53:00
11:53 AM,66.9,25.0,21,30.17,10.0,East,4.6,-,N/A,,Clear,80,2012-10-01 17:53:00
12:53 PM,70.0,23.0,17,30.16,10.0,Variable,3.5,-,N/A,,Clear,0,2012-10-01 18:53:00
1:53 PM,71.1,23.0,16,30.13,10.0,Variable,4.6,-,N/A,,Clear,0,2012-10-01 19:53:00
2:53 PM,72.0,23.0,16,30.09,10.0,ESE,3.5,-,N/A,,Clear,120,2012-10-01 20:53:00
4:53 PM,73.9,23.0,15,30.07,10.0,West,9.2,-,N/A,,Clear,260,2012-10-01 22:53:00
5:53 PM,72.0,24.1,17,30.05,10.0,NW,11.5,-,N/A,,Clear,310,2012-10-01 23:53:00
6:53 PM,66.9,24.1,20,30.10,10.0,WNW,11.5,-,N/A,,Clear,300,2012-10-02 00:53:00
7:53 PM,61.0,24.1,24,30.10,10.0,WNW,10.4,-,N/A,,Clear,300,2012-10-02 01:53:00
8:53 PM,55.0,24.1,30,30.10,10.0,ENE,3.5,-,N/A,,Clear,70,2012-10-02 02:53:00
9:53 PM,46.9,25.0,42,30.09,10.0,West,4.6,-,N/A,,Clear,260,2012-10-02 03:53:00
10:53 PM,44.1,25.0,47,30.09,10.0,Calm,Calm,-,N/A,,Clear,0,2012-10-02 04:53:00
11:53 PM,39.9,27.0,60,30.09,10.0,West,5.8,-,N/A,,Clear,260,2012-10-02 05:53:00